, SD

(GMT )
Rapid City

Weather History for KRAP - February, 2014

Change the Weather History Date:

Wednesday, February 26, 2014

  Actual Average Record
Temperature  
Mean Temperature 16 °F 30 °F  
Max Temperature 41 °F 42 °F 66 °F (1976)
Min Temperature -9 °F 18 °F -10 °F (2015)
Degree Days  
Heating Degree Days 49 35  
Month to date heating degree days 1192 983  
Since 1 July heating degree days 5537 5139  
Cooling Degree Days 0 0  
Month to date cooling degree days 0 0  
Year to date cooling degree days 0 0  
Moisture  
Dew Point 0 °F    
Average Humidity 53    
Maximum Humidity 86    
Minimum Humidity 20    
Precipitation  
Precipitation 0.00 in 0.03 in 0.53 in (1987)
Month to date precipitation 0.23 0.40  
Year to date precipitation 0.45 0.70  
Snow  
Snow 0.00 in 0.30 in 7.10 in (1987)
Month to date snowfall 5.5 5.3  
Since 1 July snowfall 42.1 22.9  
Snow Depth 1.00 in    
Sea Level Pressure  
Sea Level Pressure 30.13 in    
Wind  
Wind Speed 10 mph (NNW)    
Max Wind Speed 36 mph    
Max Gust Speed 43 mph    
Visibility 10 miles    
Events      
T = Trace of Precipitation, MM = Missing Value Source: NWS Daily Summary

Daily Weather History Graph

Daily Weather History Graph

Search for Another Location

Airport or City:

Trip Planner

Search our weather history database for the weather conditions in past years. The results will help you decide how hot, cold, wet, or windy it might be!

Date:

Astronomy

Feb. 26, 2014 Rise Set
Actual Time 6:34 AM MST 5:36 PM MST
Civil Twilight 6:05 AM MST 6:05 PM MST
Nautical Twilight 5:31 AM MST 6:39 PM MST
Astronomical Twilight 4:58 AM MST 7:12 PM MST
Moon 4:26 AM MST (2/26) 2:50 PM MST (2/26)
Length of Visible Light 12h 00m
Length of Day
11h 02m
Waning Crescent, 9% of the Moon is Illuminated
Feb 26
Waning Crescent
Mar 1
New
Mar 8
First Quarter
Mar 16
Full
Mar 23
Last Quarter

Hourly Weather History & Observations

Time (MST) Temp. Windchill Dew Point Humidity Pressure Visibility Wind Dir Wind Speed Gust Speed Precip Events Conditions
12:52 AM -0.9 °F - -6.0 °F 79% 30.40 in 10.0 mi Calm Calm - N/A   Clear
1:52 AM -2.0 °F - -6.0 °F 83% 30.36 in 10.0 mi Calm Calm - N/A   Clear
2:52 AM -6.0 °F - -9.9 °F 83% 30.33 in 10.0 mi Calm Calm - N/A   Clear
3:52 AM -6.0 °F - -9.9 °F 83% 30.30 in 10.0 mi Calm Calm - N/A   Clear
4:52 AM -2.0 °F -12.2 °F -9.0 °F 72% 30.25 in 10.0 mi West 4.6 mph - N/A   Clear
5:52 AM -2.9 °F - -11.9 °F 65% 30.25 in 10.0 mi Calm Calm - N/A   Clear
8:52 AM 16.0 °F - -4.0 °F 41% 30.18 in 10.0 mi Calm Calm - N/A   Clear
9:52 AM 23.0 °F 17.0 °F -0.0 °F 37% 30.15 in 10.0 mi SE 4.6 mph - N/A   Clear
10:52 AM 26.6 °F 20.0 °F 6.8 °F 43% 30.13 in 10.0 mi SE 5.8 mph - N/A   Clear
11:52 AM 30.9 °F - -0.0 °F 27% 30.11 in 10.0 mi Calm Calm - N/A   Clear
12:52 PM 39.9 °F 31.4 °F 7.0 °F 26% 30.05 in 10.0 mi NNW 16.1 mph 24.2 mph N/A   Clear
1:03 PM 39.2 °F 31.2 °F 6.8 °F 26% 29.90 in 10.0 mi NW 13.8 mph 21.9 mph N/A   Clear
1:52 PM 41.0 °F 31.4 °F 3.9 °F 21% 30.03 in 10.0 mi NNW 21.9 mph 29.9 mph N/A   Clear
2:52 PM 39.9 °F 28.2 °F 3.0 °F 21% 30.04 in 10.0 mi NNW 31.1 mph 36.8 mph N/A   Clear
3:52 PM 37.9 °F 25.3 °F 1.9 °F 22% 30.03 in 10.0 mi NNW 32.2 mph 40.3 mph N/A   Clear
4:52 PM 34.0 °F 20.3 °F 3.0 °F 27% 30.04 in 10.0 mi North 29.9 mph 34.5 mph N/A   Clear
5:52 PM 30.9 °F 18.7 °F 3.0 °F 31% 30.07 in 10.0 mi NNW 19.6 mph - N/A   Clear
6:52 PM 26.1 °F 14.5 °F 5.0 °F 41% 30.10 in 10.0 mi North 13.8 mph - N/A   Clear
7:52 PM 25.0 °F 15.5 °F 3.0 °F 39% 30.08 in 10.0 mi NNW 9.2 mph - N/A   Clear
8:52 PM 21.0 °F 10.6 °F 3.0 °F 46% 30.07 in 10.0 mi North 9.2 mph - N/A   Clear
9:52 PM 19.0 °F 6.8 °F 3.0 °F 50% 30.06 in 10.0 mi North 11.5 mph - N/A   Clear
10:52 PM 18.0 °F 4.8 °F 6.1 °F 60% 30.05 in 10.0 mi NNE 12.7 mph - N/A   Clear
11:52 PM 18.0 °F 9.8 °F 6.1 °F 60% 30.04 in 10.0 mi West 5.8 mph - N/A   Clear